Year,Month,Day,Hour,Minute,Value (Times are PST for temperature in C)
2015,01,28,00,00,4.90
2015,01,28,00,01,4.90
2015,01,28,00,02,4.90
2015,01,28,00,03,4.90
2015,01,28,00,04,4.90
2015,01,28,00,05,4.90
2015,01,28,00,06,4.90
2015,01,28,00,07,4.90
2015,01,28,00,08,4.90
2015,01,28,00,09,4.80
2015,01,28,00,10,4.80
2015,01,28,00,11,4.70
2015,01,28,00,12,4.70
2015,01,28,00,13,4.60
2015,01,28,00,14,4.60
2015,01,28,00,15,4.60
2015,01,28,00,16,4.60
2015,01,28,00,17,4.50
2015,01,28,00,18,4.50
2015,01,28,00,19,4.40
2015,01,28,00,20,4.40
2015,01,28,00,21,4.40
2015,01,28,00,22,4.30
2015,01,28,00,23,4.30
2015,01,28,00,24,4.30
2015,01,28,00,25,4.40
2015,01,28,00,26,4.40
2015,01,28,00,27,4.40
2015,01,28,00,28,4.40
2015,01,28,00,29,4.40
2015,01,28,00,30,4.40
2015,01,28,00,31,4.40
2015,01,28,00,32,4.50
2015,01,28,00,33,4.50
2015,01,28,00,34,4.60
2015,01,28,00,35,4.60
2015,01,28,00,36,4.60
2015,01,28,00,37,4.60
2015,01,28,00,38,4.60
2015,01,28,00,39,4.60
2015,01,28,00,40,4.60
2015,01,28,00,41,4.70
2015,01,28,00,42,4.70
2015,01,28,00,43,4.70
2015,01,28,00,44,4.70
2015,01,28,00,45,4.70
2015,01,28,00,46,4.70
2015,01,28,00,47,4.60
2015,01,28,00,48,4.60
2015,01,28,00,49,4.60
2015,01,28,00,50,4.60
2015,01,28,00,51,4.60
2015,01,28,00,52,4.60
2015,01,28,00,53,4.60
2015,01,28,00,54,4.60
2015,01,28,00,55,4.60
2015,01,28,00,56,4.70
2015,01,28,00,57,4.70
2015,01,28,00,58,4.70
2015,01,28,00,59,4.60
2015,01,28,01,00,4.60
2015,01,28,01,01,4.50
2015,01,28,01,02,4.40
2015,01,28,01,03,4.40
2015,01,28,01,04,4.30
2015,01,28,01,05,4.30
2015,01,28,01,06,4.20
2015,01,28,01,07,4.20
2015,01,28,01,08,4.20
2015,01,28,01,09,4.20
2015,01,28,01,10,4.20
2015,01,28,01,11,4.10
2015,01,28,01,12,4.10
2015,01,28,01,13,4.10
2015,01,28,01,14,4.10
2015,01,28,01,15,4.10
2015,01,28,01,16,4.00
2015,01,28,01,17,4.00
2015,01,28,01,18,4.00
2015,01,28,01,19,4.00
2015,01,28,01,20,4.00
2015,01,28,01,21,4.00
2015,01,28,01,22,4.00
2015,01,28,01,23,4.00
2015,01,28,01,24,4.00
2015,01,28,01,25,4.00
2015,01,28,01,26,4.00
2015,01,28,01,27,4.00
2015,01,28,01,28,4.00
2015,01,28,01,29,4.10
2015,01,28,01,30,4.10
2015,01,28,01,31,4.20
2015,01,28,01,32,4.20
2015,01,28,01,33,4.20
2015,01,28,01,34,4.20
2015,01,28,01,35,4.30
2015,01,28,01,36,4.30
2015,01,28,01,37,4.20
2015,01,28,01,38,4.20
2015,01,28,01,39,4.20
2015,01,28,01,40,4.20
2015,01,28,01,41,4.20
2015,01,28,01,42,4.10
2015,01,28,01,43,4.10
2015,01,28,01,44,4.20
2015,01,28,01,45,4.20
2015,01,28,01,46,4.30
2015,01,28,01,47,4.30
2015,01,28,01,48,4.30
2015,01,28,01,49,4.40
2015,01,28,01,50,4.40
2015,01,28,01,51,4.50
2015,01,28,01,52,4.50
2015,01,28,01,53,4.50
2015,01,28,01,54,4.60
2015,01,28,01,55,4.60
2015,01,28,01,56,4.60
2015,01,28,01,57,4.60
2015,01,28,01,58,4.60
2015,01,28,01,59,4.60
2015,01,28,02,00,4.60
2015,01,28,02,01,4.60
2015,01,28,02,02,4.60
2015,01,28,02,03,4.60
2015,01,28,02,04,4.60
2015,01,28,02,05,4.60
2015,01,28,02,06,4.70
2015,01,28,02,07,4.70
2015,01,28,02,08,4.80
2015,01,28,02,09,4.80
2015,01,28,02,10,4.90
2015,01,28,02,11,5.00
2015,01,28,02,12,5.10
2015,01,28,02,13,5.10
2015,01,28,02,14,5.00
2015,01,28,02,15,4.90
2015,01,28,02,16,4.90
2015,01,28,02,17,4.80
2015,01,28,02,18,4.80
2015,01,28,02,19,4.80
2015,01,28,02,20,4.80
2015,01,28,02,21,4.90
2015,01,28,02,22,4.90
2015,01,28,02,23,4.90
2015,01,28,02,24,4.90
2015,01,28,02,25,4.90
2015,01,28,02,26,4.90
2015,01,28,02,27,4.90
2015,01,28,02,28,4.90
2015,01,28,02,29,4.90
2015,01,28,02,30,4.90
2015,01,28,02,31,4.90
2015,01,28,02,32,4.90
2015,01,28,02,33,4.90
2015,01,28,02,34,4.80
2015,01,28,02,35,4.80
2015,01,28,02,36,4.80
2015,01,28,02,37,4.80
2015,01,28,02,38,4.80
2015,01,28,02,39,4.80
2015,01,28,02,40,4.70
2015,01,28,02,41,4.70
2015,01,28,02,42,4.70
2015,01,28,02,43,4.60
2015,01,28,02,44,4.60
2015,01,28,02,45,4.60
2015,01,28,02,46,4.60
2015,01,28,02,47,4.60
2015,01,28,02,48,4.60
2015,01,28,02,49,4.60
2015,01,28,02,50,4.60
2015,01,28,02,51,4.60
2015,01,28,02,52,4.60
2015,01,28,02,53,4.60
2015,01,28,02,54,4.60
2015,01,28,02,55,4.50
2015,01,28,02,56,4.50
2015,01,28,02,57,4.50
2015,01,28,02,58,4.50
2015,01,28,02,59,4.50
2015,01,28,03,00,4.50
2015,01,28,03,01,4.50
2015,01,28,03,02,4.50
2015,01,28,03,03,4.50
2015,01,28,03,04,4.50
2015,01,28,03,05,4.60
2015,01,28,03,06,4.60
2015,01,28,03,07,4.60
2015,01,28,03,08,4.60
2015,01,28,03,09,4.60
2015,01,28,03,10,4.60
2015,01,28,03,11,4.60
2015,01,28,03,12,4.60
2015,01,28,03,13,4.70
2015,01,28,03,14,4.70
2015,01,28,03,15,4.70
2015,01,28,03,16,4.70
2015,01,28,03,17,4.70
2015,01,28,03,18,4.60
2015,01,28,03,19,4.60
2015,01,28,03,20,4.60
2015,01,28,03,21,4.60
2015,01,28,03,22,4.60
2015,01,28,03,23,4.60
2015,01,28,03,24,4.60
2015,01,28,03,25,4.60
2015,01,28,03,26,4.60
2015,01,28,03,27,4.60
2015,01,28,03,28,4.60
2015,01,28,03,29,4.70
2015,01,28,03,30,4.70
2015,01,28,03,31,4.70
2015,01,28,03,32,4.70
2015,01,28,03,33,4.70
2015,01,28,03,34,4.60
2015,01,28,03,35,4.60
2015,01,28,03,36,4.60
2015,01,28,03,37,4.60
2015,01,28,03,38,4.60
2015,01,28,03,39,4.60
2015,01,28,03,40,4.60
2015,01,28,03,41,4.60
2015,01,28,03,42,4.60
2015,01,28,03,43,4.60
2015,01,28,03,44,4.60
2015,01,28,03,45,4.60
2015,01,28,03,46,4.60
2015,01,28,03,47,4.60
2015,01,28,03,48,4.50
2015,01,28,03,49,4.60
2015,01,28,03,50,4.60
2015,01,28,03,51,4.60
2015,01,28,03,52,4.60
2015,01,28,03,53,4.60
2015,01,28,03,54,4.60
2015,01,28,03,55,4.60
2015,01,28,03,56,4.60
2015,01,28,03,57,4.60
2015,01,28,03,58,4.60
2015,01,28,03,59,4.60
2015,01,28,04,00,4.60
2015,01,28,04,01,4.60
2015,01,28,04,02,4.60
2015,01,28,04,03,4.50
2015,01,28,04,04,4.50
2015,01,28,04,05,4.50
2015,01,28,04,06,4.60
2015,01,28,04,07,4.60
2015,01,28,04,08,4.60
2015,01,28,04,09,4.50
2015,01,28,04,10,4.50
2015,01,28,04,11,4.50
2015,01,28,04,12,4.40
2015,01,28,04,13,4.50
2015,01,28,04,14,4.50
2015,01,28,04,15,4.50
2015,01,28,04,16,4.50
2015,01,28,04,17,4.60
2015,01,28,04,18,4.60
2015,01,28,04,19,4.60
2015,01,28,04,20,4.50
2015,01,28,04,21,4.50
2015,01,28,04,22,4.50
2015,01,28,04,23,4.50
2015,01,28,04,24,4.50
2015,01,28,04,25,4.50
2015,01,28,04,26,4.50
2015,01,28,04,27,4.50
2015,01,28,04,28,4.50
2015,01,28,04,29,4.50
2015,01,28,04,30,4.50
2015,01,28,04,31,4.50
2015,01,28,04,32,4.40
2015,01,28,04,33,4.40
2015,01,28,04,34,4.40
2015,01,28,04,35,4.40
2015,01,28,04,36,4.40
2015,01,28,04,37,4.30
2015,01,28,04,38,4.30
2015,01,28,04,39,4.30
2015,01,28,04,40,4.30
2015,01,28,04,41,4.40
2015,01,28,04,42,4.40
2015,01,28,04,43,4.50
2015,01,28,04,44,4.50
2015,01,28,04,45,4.50
2015,01,28,04,46,4.60
2015,01,28,04,47,4.60
2015,01,28,04,48,4.60
2015,01,28,04,49,4.70
2015,01,28,04,50,4.70
2015,01,28,04,51,4.70
2015,01,28,04,52,4.60
2015,01,28,04,53,4.60
2015,01,28,04,54,4.60
2015,01,28,04,55,4.60
2015,01,28,04,56,4.60
2015,01,28,04,57,4.60
2015,01,28,04,58,4.60
2015,01,28,04,59,4.60
2015,01,28,05,00,4.60
2015,01,28,05,01,4.60
2015,01,28,05,02,4.60
2015,01,28,05,03,4.60
2015,01,28,05,04,4.60
2015,01,28,05,05,4.60
2015,01,28,05,06,4.70
2015,01,28,05,07,4.70
2015,01,28,05,08,4.80
2015,01,28,05,09,4.80
2015,01,28,05,10,4.80
2015,01,28,05,11,4.80
2015,01,28,05,12,4.70
2015,01,28,05,13,4.70
2015,01,28,05,14,4.70
2015,01,28,05,15,4.60
2015,01,28,05,16,4.60
2015,01,28,05,17,4.60
2015,01,28,05,18,4.60
2015,01,28,05,19,4.60
2015,01,28,05,20,4.60
2015,01,28,05,21,4.60
2015,01,28,05,22,4.60
2015,01,28,05,23,4.60
2015,01,28,05,24,4.60
2015,01,28,05,25,4.70
2015,01,28,05,26,4.70
2015,01,28,05,27,4.70
2015,01,28,05,28,4.70
2015,01,28,05,29,4.70
2015,01,28,05,30,4.70
2015,01,28,05,31,4.70
2015,01,28,05,32,4.70
2015,01,28,05,33,4.80
2015,01,28,05,34,4.80
2015,01,28,05,35,4.80
2015,01,28,05,36,4.80
2015,01,28,05,37,4.80
2015,01,28,05,38,4.80
2015,01,28,05,39,4.80
2015,01,28,05,40,4.90
2015,01,28,05,41,4.90
2015,01,28,05,42,4.90
2015,01,28,05,43,4.80
2015,01,28,05,44,4.80
2015,01,28,05,45,4.80
2015,01,28,05,46,4.80
2015,01,28,05,47,4.80
2015,01,28,05,48,4.80
2015,01,28,05,49,4.70
2015,01,28,05,50,4.70
2015,01,28,05,51,4.70
2015,01,28,05,52,4.70
2015,01,28,05,53,4.80
2015,01,28,05,54,4.80
2015,01,28,05,55,4.80
2015,01,28,05,56,4.90
2015,01,28,05,57,4.90
2015,01,28,05,58,4.90
2015,01,28,05,59,5.00
2015,01,28,06,00,5.10
2015,01,28,06,01,5.10
2015,01,28,06,02,5.10
2015,01,28,06,03,5.10
2015,01,28,06,04,5.10
2015,01,28,06,05,5.10
2015,01,28,06,06,5.00
2015,01,28,06,07,4.90
2015,01,28,06,08,4.90
2015,01,28,06,09,4.90
2015,01,28,06,10,4.90
2015,01,28,06,11,4.90
2015,01,28,06,12,4.90
2015,01,28,06,13,4.90
2015,01,28,06,14,4.90
2015,01,28,06,15,4.90
2015,01,28,06,16,4.90
2015,01,28,06,17,4.90
2015,01,28,06,18,5.00
2015,01,28,06,19,5.10
2015,01,28,06,20,5.10
2015,01,28,06,21,5.00
2015,01,28,06,22,4.90
2015,01,28,06,23,4.90
2015,01,28,06,24,4.90
2015,01,28,06,25,4.80
2015,01,28,06,26,4.70
2015,01,28,06,27,4.60
2015,01,28,06,28,4.60
2015,01,28,06,29,4.60
2015,01,28,06,30,4.60
2015,01,28,06,31,4.60
2015,01,28,06,32,4.60
2015,01,28,06,33,4.60
2015,01,28,06,34,4.60
2015,01,28,06,35,4.60
2015,01,28,06,36,4.60
2015,01,28,06,37,4.70
2015,01,28,06,38,4.70
2015,01,28,06,39,4.70
2015,01,28,06,40,4.70
2015,01,28,06,41,4.70
2015,01,28,06,42,4.70
2015,01,28,06,43,4.70
2015,01,28,06,44,4.70
2015,01,28,06,45,4.70
2015,01,28,06,46,4.70
2015,01,28,06,47,4.70
2015,01,28,06,48,4.70
2015,01,28,06,49,4.70
2015,01,28,06,50,4.80
2015,01,28,06,51,4.80
2015,01,28,06,52,4.80
2015,01,28,06,53,4.80
2015,01,28,06,54,4.80
2015,01,28,06,55,4.90
2015,01,28,06,56,4.90
2015,01,28,06,57,5.00
2015,01,28,06,58,5.10
2015,01,28,06,59,5.10
2015,01,28,07,00,5.20
2015,01,28,07,01,5.20
2015,01,28,07,02,5.30
2015,01,28,07,03,5.30
2015,01,28,07,04,5.40
2015,01,28,07,05,5.50
2015,01,28,07,06,5.50
2015,01,28,07,07,5.60
2015,01,28,07,08,5.60
2015,01,28,07,09,5.70
2015,01,28,07,10,5.70
2015,01,28,07,11,5.70
2015,01,28,07,12,5.70
2015,01,28,07,13,5.80
2015,01,28,07,14,5.80
2015,01,28,07,15,5.90
2015,01,28,07,16,5.90
2015,01,28,07,17,6.00
2015,01,28,07,18,6.00
2015,01,28,07,19,6.10
2015,01,28,07,20,6.20
2015,01,28,07,21,6.20
2015,01,28,07,22,6.20
2015,01,28,07,23,6.20
2015,01,28,07,24,6.20
2015,01,28,07,25,6.20
2015,01,28,07,26,6.30
2015,01,28,07,27,6.30
2015,01,28,07,28,6.40
2015,01,28,07,29,6.40
2015,01,28,07,30,6.40
2015,01,28,07,31,6.40
2015,01,28,07,32,6.50
2015,01,28,07,33,6.60
2015,01,28,07,34,6.60
2015,01,28,07,35,6.60
2015,01,28,07,36,6.60
2015,01,28,07,37,6.60
2015,01,28,07,38,6.70
2015,01,28,07,39,6.70
2015,01,28,07,40,6.70
2015,01,28,07,41,6.70
2015,01,28,07,42,6.70
2015,01,28,07,43,6.70
2015,01,28,07,44,6.70
2015,01,28,07,45,6.70
2015,01,28,07,46,6.70
2015,01,28,07,47,6.70
2015,01,28,07,48,6.70
2015,01,28,07,49,6.70
2015,01,28,07,50,6.70
2015,01,28,07,51,6.70
2015,01,28,07,52,6.70
2015,01,28,07,53,6.80
2015,01,28,07,54,6.80
2015,01,28,07,55,6.80
2015,01,28,07,56,6.90
2015,01,28,07,57,6.90
2015,01,28,07,58,6.90
2015,01,28,07,59,6.90
2015,01,28,08,00,7.00
2015,01,28,08,01,7.00
2015,01,28,08,02,7.00
2015,01,28,08,03,7.00
2015,01,28,08,04,7.10
2015,01,28,08,05,7.10
2015,01,28,08,06,7.10
2015,01,28,08,07,7.10
2015,01,28,08,08,7.00
2015,01,28,08,09,7.00
2015,01,28,08,10,6.90
2015,01,28,08,11,6.90
2015,01,28,08,12,6.80
2015,01,28,08,13,6.80
2015,01,28,08,14,6.80
2015,01,28,08,15,6.80
2015,01,28,08,16,6.80
2015,01,28,08,17,6.80
2015,01,28,08,18,6.80
2015,01,28,08,19,6.80
2015,01,28,08,20,6.80
2015,01,28,08,21,6.90
2015,01,28,08,22,7.00
2015,01,28,08,23,7.00
2015,01,28,08,24,7.10
2015,01,28,08,25,7.20
2015,01,28,08,26,7.30
2015,01,28,08,27,7.30
2015,01,28,08,28,7.30
2015,01,28,08,29,7.30
2015,01,28,08,30,7.30
2015,01,28,08,31,7.30
2015,01,28,08,32,7.30
2015,01,28,08,33,7.40
2015,01,28,08,34,7.40
2015,01,28,08,35,7.50
2015,01,28,08,36,7.50
2015,01,28,08,37,7.60
2015,01,28,08,38,7.60
2015,01,28,08,39,7.60
2015,01,28,08,40,7.60
2015,01,28,08,41,7.60
2015,01,28,08,42,7.60
2015,01,28,08,43,7.50
2015,01,28,08,44,7.50
2015,01,28,08,45,7.40
2015,01,28,08,46,7.40
2015,01,28,08,47,7.40
2015,01,28,08,48,7.40
2015,01,28,08,49,7.40
2015,01,28,08,50,7.50
2015,01,28,08,51,7.50
2015,01,28,08,52,7.50
2015,01,28,08,53,7.50
2015,01,28,08,54,7.50
2015,01,28,08,55,7.50
2015,01,28,08,56,7.60
2015,01,28,08,57,7.60
2015,01,28,08,58,7.60
2015,01,28,08,59,7.70
2015,01,28,09,00,7.70
2015,01,28,09,01,7.70
2015,01,28,09,02,7.70
2015,01,28,09,03,7.70
2015,01,28,09,04,7.70
2015,01,28,09,05,7.70
2015,01,28,09,06,7.70
2015,01,28,09,07,7.70
2015,01,28,09,08,7.80
2015,01,28,09,09,7.80
2015,01,28,09,10,7.80
2015,01,28,09,11,7.80
2015,01,28,09,12,7.90
2015,01,28,09,13,7.90
2015,01,28,09,14,7.90
2015,01,28,09,15,8.00
2015,01,28,09,16,8.00
2015,01,28,09,17,8.00
2015,01,28,09,18,8.00
2015,01,28,09,19,8.00
2015,01,28,09,20,7.90
2015,01,28,09,21,7.80
2015,01,28,09,22,7.80
2015,01,28,09,23,7.80
2015,01,28,09,24,7.80
2015,01,28,09,25,7.80
2015,01,28,09,26,7.70
2015,01,28,09,27,7.60
2015,01,28,09,28,7.60
2015,01,28,09,29,7.50
2015,01,28,09,30,7.50
2015,01,28,09,31,7.50
2015,01,28,09,32,7.40
2015,01,28,09,33,7.40
2015,01,28,09,34,7.50
2015,01,28,09,35,7.50
2015,01,28,09,36,7.50
2015,01,28,09,37,7.60
2015,01,28,09,38,7.60
2015,01,28,09,39,7.70
2015,01,28,09,40,7.70
2015,01,28,09,41,7.80
2015,01,28,09,42,7.80
2015,01,28,09,43,7.80
2015,01,28,09,44,7.90
2015,01,28,09,45,7.90
2015,01,28,09,46,7.90
2015,01,28,09,47,8.00
2015,01,28,09,48,8.10
2015,01,28,09,49,8.10
2015,01,28,09,50,8.20
2015,01,28,09,51,8.30
2015,01,28,09,52,8.30
2015,01,28,09,53,8.40
2015,01,28,09,54,8.40
2015,01,28,09,55,8.50
2015,01,28,09,56,8.50
2015,01,28,09,57,8.60
2015,01,28,09,58,8.70
2015,01,28,09,59,8.70
2015,01,28,10,00,8.70
2015,01,28,10,01,8.80
2015,01,28,10,02,8.80
2015,01,28,10,03,8.70
2015,01,28,10,04,8.60
2015,01,28,10,05,8.60
2015,01,28,10,06,8.60
2015,01,28,10,07,8.60
2015,01,28,10,08,8.70
2015,01,28,10,09,8.70
2015,01,28,10,10,8.70
2015,01,28,10,11,8.70
2015,01,28,10,12,8.80
2015,01,28,10,13,8.80
2015,01,28,10,14,8.90
2015,01,28,10,15,8.90
2015,01,28,10,16,8.90
2015,01,28,10,17,8.90
2015,01,28,10,18,8.90
2015,01,28,10,19,8.90
2015,01,28,10,20,8.90
2015,01,28,10,21,8.90
2015,01,28,10,22,9.00
2015,01,28,10,23,9.00
2015,01,28,10,24,9.00
2015,01,28,10,25,9.00
2015,01,28,10,26,9.10
2015,01,28,10,27,9.10
2015,01,28,10,28,9.10
2015,01,28,10,29,9.10
2015,01,28,10,30,9.10
2015,01,28,10,31,9.10
2015,01,28,10,32,9.20
2015,01,28,10,33,9.20
2015,01,28,10,34,9.20
2015,01,28,10,35,9.20
2015,01,28,10,36,9.20
2015,01,28,10,37,9.30
2015,01,28,10,38,9.40
2015,01,28,10,39,9.40
2015,01,28,10,40,9.40
2015,01,28,10,41,9.40
2015,01,28,10,42,9.40
2015,01,28,10,43,9.40
2015,01,28,10,44,9.50
2015,01,28,10,45,9.50
2015,01,28,10,46,9.50
2015,01,28,10,47,9.50
2015,01,28,10,48,9.50
2015,01,28,10,49,9.60
2015,01,28,10,50,9.60
2015,01,28,10,51,9.60
2015,01,28,10,52,9.60
2015,01,28,10,53,9.60
2015,01,28,10,54,9.70
2015,01,28,10,55,9.70
2015,01,28,10,56,9.70
2015,01,28,10,57,9.70
2015,01,28,10,58,9.80
2015,01,28,10,59,9.90
2015,01,28,11,00,9.90
2015,01,28,11,01,9.90
2015,01,28,11,02,9.90
2015,01,28,11,03,9.80
2015,01,28,11,04,9.80
2015,01,28,11,05,9.90
2015,01,28,11,06,10.00
2015,01,28,11,07,10.10
2015,01,28,11,08,10.10
2015,01,28,11,09,10.00
2015,01,28,11,10,10.00
2015,01,28,11,11,10.00
2015,01,28,11,12,10.00
2015,01,28,11,13,9.90
2015,01,28,11,14,10.00
2015,01,28,11,15,10.00
2015,01,28,11,16,9.90
2015,01,28,11,17,9.90
2015,01,28,11,18,9.90
2015,01,28,11,19,9.90
2015,01,28,11,20,9.90
2015,01,28,11,21,10.00
2015,01,28,11,22,10.10
2015,01,28,11,23,10.10
2015,01,28,11,24,10.30
2015,01,28,11,25,10.30
2015,01,28,11,26,10.50
2015,01,28,11,27,10.60
2015,01,28,11,28,10.60
2015,01,28,11,29,10.60
2015,01,28,11,30,10.60
2015,01,28,11,31,10.60
2015,01,28,11,32,10.60
2015,01,28,11,33,10.60
2015,01,28,11,34,10.60
2015,01,28,11,35,10.60
2015,01,28,11,36,10.60
2015,01,28,11,37,10.70
2015,01,28,11,38,10.70
2015,01,28,11,39,10.80
2015,01,28,11,40,10.90
2015,01,28,11,41,10.90
2015,01,28,11,42,10.90
2015,01,28,11,43,10.70
2015,01,28,11,44,10.60
2015,01,28,11,45,10.60
2015,01,28,11,46,10.40
2015,01,28,11,47,10.40
2015,01,28,11,48,10.50
2015,01,28,11,49,10.60
2015,01,28,11,50,10.60
2015,01,28,11,51,10.60
2015,01,28,11,52,10.60
2015,01,28,11,53,10.70
2015,01,28,11,54,10.60
2015,01,28,11,55,10.70
2015,01,28,11,56,10.70
2015,01,28,11,57,10.70
2015,01,28,11,58,10.70
2015,01,28,11,59,10.70
2015,01,28,12,00,10.60
2015,01,28,12,01,10.60
2015,01,28,12,02,10.60
2015,01,28,12,03,10.60
2015,01,28,12,04,10.60
2015,01,28,12,05,10.60
2015,01,28,12,06,10.70
2015,01,28,12,07,10.70
2015,01,28,12,08,10.60
2015,01,28,12,09,10.60
2015,01,28,12,10,10.60
2015,01,28,12,11,10.60
2015,01,28,12,12,10.60
2015,01,28,12,13,10.60
2015,01,28,12,14,10.70
2015,01,28,12,15,10.80
2015,01,28,12,16,10.80
2015,01,28,12,17,10.80
2015,01,28,12,18,10.90
2015,01,28,12,19,10.90
2015,01,28,12,20,10.90
2015,01,28,12,21,10.90
2015,01,28,12,22,10.90
2015,01,28,12,23,10.90
2015,01,28,12,24,10.90
2015,01,28,12,25,10.80
2015,01,28,12,26,10.70
2015,01,28,12,27,10.80
2015,01,28,12,28,10.80
2015,01,28,12,29,10.80
2015,01,28,12,30,10.80
2015,01,28,12,31,10.70
2015,01,28,12,32,10.60
2015,01,28,12,33,10.60
2015,01,28,12,34,10.50
2015,01,28,12,35,10.40
2015,01,28,12,36,10.40
2015,01,28,12,37,10.40
2015,01,28,12,38,10.30
2015,01,28,12,39,10.40
2015,01,28,12,40,10.30
2015,01,28,12,41,10.20
2015,01,28,12,42,10.20
2015,01,28,12,43,10.20
2015,01,28,12,44,10.20
2015,01,28,12,45,10.20
2015,01,28,12,46,10.20
2015,01,28,12,47,10.30
2015,01,28,12,48,10.40
2015,01,28,12,49,10.40
2015,01,28,12,50,10.40
2015,01,28,12,51,10.40
2015,01,28,12,52,10.40
2015,01,28,12,53,10.40
2015,01,28,12,54,10.30
2015,01,28,12,55,10.30
2015,01,28,12,56,10.30
2015,01,28,12,57,10.20
2015,01,28,12,58,10.20
2015,01,28,12,59,10.10
2015,01,28,13,00,10.10
2015,01,28,13,01,10.10
2015,01,28,13,02,10.10
2015,01,28,13,03,10.10
2015,01,28,13,04,10.10
2015,01,28,13,05,10.10
2015,01,28,13,06,10.20
2015,01,28,13,07,10.20
2015,01,28,13,08,10.30
2015,01,28,13,09,10.30
2015,01,28,13,10,10.40
2015,01,28,13,11,10.40
2015,01,28,13,12,10.40
2015,01,28,13,13,10.40
2015,01,28,13,14,10.40
2015,01,28,13,15,10.40
2015,01,28,13,16,10.40
2015,01,28,13,17,10.40
2015,01,28,13,18,10.40
2015,01,28,13,19,10.50
2015,01,28,13,20,10.60
2015,01,28,13,21,10.50
2015,01,28,13,22,10.50
2015,01,28,13,23,10.60
2015,01,28,13,24,10.60
2015,01,28,13,25,10.60
2015,01,28,13,26,10.60
2015,01,28,13,27,10.60
2015,01,28,13,28,10.60
2015,01,28,13,29,10.60
2015,01,28,13,30,10.60
2015,01,28,13,31,10.70
2015,01,28,13,32,10.70
2015,01,28,13,33,10.80
2015,01,28,13,34,10.80
2015,01,28,13,35,10.80
2015,01,28,13,36,10.80
2015,01,28,13,37,10.80
2015,01,28,13,38,10.80
2015,01,28,13,39,10.80
2015,01,28,13,40,10.80
2015,01,28,13,41,10.80
2015,01,28,13,42,10.80
2015,01,28,13,43,10.70
2015,01,28,13,44,10.80
2015,01,28,13,45,10.70
2015,01,28,13,46,10.70
2015,01,28,13,47,10.60
2015,01,28,13,48,10.70
2015,01,28,13,49,10.70
2015,01,28,13,50,10.70
2015,01,28,13,51,10.70
2015,01,28,13,52,10.60
2015,01,28,13,53,10.60
2015,01,28,13,54,10.60
2015,01,28,13,55,10.60
2015,01,28,13,56,10.60
2015,01,28,13,57,10.60
2015,01,28,13,58,10.60
2015,01,28,13,59,10.60
2015,01,28,14,00,10.60
2015,01,28,14,01,10.60
2015,01,28,14,02,10.60
2015,01,28,14,03,10.60
2015,01,28,14,04,10.60
2015,01,28,14,05,10.60
2015,01,28,14,06,10.60
2015,01,28,14,07,10.60
2015,01,28,14,08,10.60
2015,01,28,14,09,10.60
2015,01,28,14,10,10.60
2015,01,28,14,11,10.60
2015,01,28,14,12,10.60
2015,01,28,14,13,10.60
2015,01,28,14,14,10.60
2015,01,28,14,15,10.60
2015,01,28,14,16,10.60
2015,01,28,14,17,10.60
2015,01,28,14,18,10.60
2015,01,28,14,19,10.60
2015,01,28,14,20,10.60
2015,01,28,14,21,10.60
2015,01,28,14,22,10.60
2015,01,28,14,23,10.60
2015,01,28,14,24,10.60
2015,01,28,14,25,10.70
2015,01,28,14,26,10.70
2015,01,28,14,27,10.70
2015,01,28,14,28,10.70
2015,01,28,14,29,10.60
2015,01,28,14,30,10.60
2015,01,28,14,31,10.60
2015,01,28,14,32,10.60
2015,01,28,14,33,10.60
2015,01,28,14,34,10.70
2015,01,28,14,35,10.60
2015,01,28,14,36,10.60
2015,01,28,14,37,10.70
2015,01,28,14,38,10.70
2015,01,28,14,39,10.70
2015,01,28,14,40,10.60
2015,01,28,14,41,10.60
2015,01,28,14,42,10.60
2015,01,28,14,43,10.60
2015,01,28,14,44,10.60
2015,01,28,14,45,10.60
2015,01,28,14,46,10.60
2015,01,28,14,47,10.60
2015,01,28,14,48,10.60
2015,01,28,14,49,10.60
2015,01,28,14,50,10.60
2015,01,28,14,51,10.60
2015,01,28,14,52,10.60
2015,01,28,14,53,10.60
2015,01,28,14,54,10.60
2015,01,28,14,55,10.60
2015,01,28,14,56,10.60
2015,01,28,14,57,10.60
2015,01,28,14,58,10.60
2015,01,28,14,59,10.60
2015,01,28,15,00,10.70
2015,01,28,15,01,10.70
2015,01,28,15,02,10.70
2015,01,28,15,03,10.70
2015,01,28,15,04,10.70
2015,01,28,15,05,10.70
2015,01,28,15,06,10.60
2015,01,28,15,07,10.60
2015,01,28,15,08,10.60
2015,01,28,15,09,10.60
2015,01,28,15,10,10.60
2015,01,28,15,11,10.60
2015,01,28,15,12,10.60
2015,01,28,15,13,10.60
2015,01,28,15,14,10.60
2015,01,28,15,15,10.60
2015,01,28,15,16,10.60
2015,01,28,15,17,10.70
2015,01,28,15,18,10.60
2015,01,28,15,19,10.60
2015,01,28,15,20,10.60
2015,01,28,15,21,10.60
2015,01,28,15,22,10.60
2015,01,28,15,23,10.60
2015,01,28,15,24,10.60
2015,01,28,15,25,10.60
2015,01,28,15,26,10.60
2015,01,28,15,27,10.60
2015,01,28,15,28,10.60
2015,01,28,15,29,10.60
2015,01,28,15,30,10.60
2015,01,28,15,31,10.60
2015,01,28,15,32,10.60
2015,01,28,15,33,10.60
2015,01,28,15,34,10.60
2015,01,28,15,35,10.60
2015,01,28,15,36,10.60
2015,01,28,15,37,10.60
2015,01,28,15,38,10.60
2015,01,28,15,39,10.60
2015,01,28,15,40,10.60
2015,01,28,15,41,10.60
2015,01,28,15,42,10.60
2015,01,28,15,43,10.60
2015,01,28,15,44,10.60
2015,01,28,15,45,10.60
2015,01,28,15,46,10.60
2015,01,28,15,47,10.60
2015,01,28,15,48,10.60
2015,01,28,15,49,10.60
2015,01,28,15,50,10.60
2015,01,28,15,51,10.40
2015,01,28,15,52,10.50
2015,01,28,15,53,10.60
2015,01,28,15,54,10.60
2015,01,28,15,55,10.40
2015,01,28,15,56,10.40
2015,01,28,15,57,10.40
2015,01,28,15,58,10.40
2015,01,28,15,59,10.40
2015,01,28,16,00,10.40
2015,01,28,16,01,10.40
2015,01,28,16,02,10.40
2015,01,28,16,03,10.40
2015,01,28,16,04,10.40
2015,01,28,16,05,10.40
2015,01,28,16,06,10.40
2015,01,28,16,07,10.40
2015,01,28,16,08,10.40
2015,01,28,16,09,10.40
2015,01,28,16,10,10.40
2015,01,28,16,11,10.40
2015,01,28,16,12,10.40
2015,01,28,16,13,10.40
2015,01,28,16,14,10.40
2015,01,28,16,15,10.40
2015,01,28,16,16,10.30
2015,01,28,16,17,10.30
2015,01,28,16,18,10.20
2015,01,28,16,19,10.20
2015,01,28,16,20,10.10
2015,01,28,16,21,10.10
2015,01,28,16,22,10.10
2015,01,28,16,23,10.10
2015,01,28,16,24,10.10
2015,01,28,16,25,10.10
2015,01,28,16,26,9.90
2015,01,28,16,27,9.90
2015,01,28,16,28,9.90
2015,01,28,16,29,9.90
2015,01,28,16,30,9.90
2015,01,28,16,31,9.90
2015,01,28,16,32,9.90
2015,01,28,16,33,9.90
2015,01,28,16,34,9.90
2015,01,28,16,35,9.80
2015,01,28,16,36,9.80
2015,01,28,16,37,9.80
2015,01,28,16,38,9.80
2015,01,28,16,39,9.80
2015,01,28,16,40,9.70
2015,01,28,16,41,9.70
2015,01,28,16,42,9.70
2015,01,28,16,43,9.70
2015,01,28,16,44,9.70
2015,01,28,16,45,9.70
2015,01,28,16,46,9.70
2015,01,28,16,47,9.60
2015,01,28,16,48,9.60
2015,01,28,16,49,9.60
2015,01,28,16,50,9.50
2015,01,28,16,51,9.50
2015,01,28,16,52,9.50
2015,01,28,16,53,9.50
2015,01,28,16,54,9.40
2015,01,28,16,55,9.40
2015,01,28,16,56,9.40
2015,01,28,16,57,9.30
2015,01,28,16,58,9.30
2015,01,28,16,59,9.30
2015,01,28,17,00,9.20
2015,01,28,17,01,9.20
2015,01,28,17,02,9.20
2015,01,28,17,03,9.20
2015,01,28,17,04,9.20
2015,01,28,17,05,9.10
2015,01,28,17,06,9.10
2015,01,28,17,07,9.10
2015,01,28,17,08,9.00
2015,01,28,17,09,9.00
2015,01,28,17,10,9.00
2015,01,28,17,11,9.00
2015,01,28,17,12,9.00
2015,01,28,17,13,8.90
2015,01,28,17,14,8.90
2015,01,28,17,15,8.90
2015,01,28,17,16,8.90
2015,01,28,17,17,8.80
2015,01,28,17,18,8.80
2015,01,28,17,19,8.80
2015,01,28,17,20,8.70
2015,01,28,17,21,8.70
2015,01,28,17,22,8.70
2015,01,28,17,23,8.70
2015,01,28,17,24,8.60
2015,01,28,17,25,8.60
2015,01,28,17,26,8.50
2015,01,28,17,27,8.50
2015,01,28,17,28,8.40
2015,01,28,17,29,8.40
2015,01,28,17,30,8.30
2015,01,28,17,31,8.30
2015,01,28,17,32,8.30
2015,01,28,17,33,8.20
2015,01,28,17,34,8.20
2015,01,28,17,35,8.20
2015,01,28,17,36,8.20
2015,01,28,17,37,8.20
2015,01,28,17,38,8.10
2015,01,28,17,39,8.10
2015,01,28,17,40,8.10
2015,01,28,17,41,8.20
2015,01,28,17,42,8.10
2015,01,28,17,43,8.10
2015,01,28,17,44,8.10
2015,01,28,17,45,8.10
2015,01,28,17,46,8.10
2015,01,28,17,47,8.00
2015,01,28,17,48,8.00
2015,01,28,17,49,8.00
2015,01,28,17,50,8.00
2015,01,28,17,51,8.00
2015,01,28,17,52,8.00